THOR 6

Last updated on Tue Sep 16 2025 00:02:46 GMT+0000 (Coordinated Universal Time)

1 36033U 09058B 25258.58440262 -.00000026 00000+0 00000+0 0 9997 2 36033 0.0111 155.2891 0001823 34.2124 14.8290 1.00272019 58257
UTC large
Height (km)
Speed (km/s)
/
Latitude / Longitude
Inclination (degrees)
Orbital Period (minutes)
Azimuth
Elevation
Range (km)
Doppler Factor

Next 0 passes for location: London (51.5072 / 0.1276)

Sorry there are no passes over London.